Dewpoint
45 50 40 31 24 23 19 20 22 27 34 40 45 43 42 45 42 38 64 65 66 67 70 70 70 70 70 70 70 70 70 70 70 70 70 70 69 69 68 68 68 66 66 66 65 65 65 65 67
42 41 30 26 20 20 20 20 22 25 48 51 51 51 47 44 51 59 62 66 66 68 70 69 70 70 70 70 70 70 70 70 70 70 69 69 69 68 68 68 67 67 66 66 65 64 64 65 66
41 34 28 22 20 17 19 19 24 41 50 49 51 56 54 46 57 60 65 67 67 68 69 70 70 70 71 71 70 70 70 70 69 69 69 68 68 68 68 68 67 66 65 65 64 65 65 64 64
34 29 26 20 18 20 18 19 22 46 44 52 54 52 59 63 59 63 66 68 67 68 69 70 70 70 70 70 71 70 69 69 68 68 69 68 68 69 68 67 67 66 65 65 64 64 65 64 64
31 29 25 23 22 22 21 20 20 44 33 51 49 50 57 63 65 66 67 67 67 68 69 70 70 70 70 71 70 69 68 68 68 69 69 69 69 68 67 67 67 67 66 64 61 59 64 64 65
31 29 24 20 22 24 23 24 22 32 42 48 49 53 57 65 65 66 67 67 68 68 69 70 70 70 70 71 70 69 68 68 68 69 70 69 69 68 67 66 66 66 65 62 59 55 58 65 66
30 27 24 25 22 20 21 23 20 34 42 42 52 48 56 63 65 66 67 67 67 68 68 68 69 71 70 70 69 69 68 68 68 69 69 68 67 66 66 65 65 65 63 60 57 55 53 64 65
30 27 25 24 21 21 22 26 20 27 39 48 47 40 45 61 65 65 66 66 67 68 67 68 69 70 70 70 69 68 68 67 68 69 68 66 65 65 65 64 64 63 61 59 57 56 54 59 63
27 24 22 22 22 26 25 26 24 27 44 45 54 52 55 64 65 65 64 65 65 66 66 67 68 69 69 69 69 68 68 67 68 68 67 65 65 64 63 62 62 61 60 59 58 56 56 56 62
26 24 23 25 25 26 26 26 24 21 24 34 51 60 62 64 64 63 63 62 63 64 65 66 66 67 67 68 69 69 68 67 67 67 67 66 65 64 63 62 62 60 60 59 59 58 58 57 57
26 26 26 28 27 28 26 25 23 22 22 23 30 51 61 63 63 63 63 63 63 64 64 65 65 66 66 66 67 68 68 68 67 67 66 66 64 63 63 62 61 61 60 58 58 58 54 53 52
28 28 28 29 29 31 30 24 23 23 24 25 30 56 60 61 62 62 63 63 63 63 64 64 64 65 66 66 66 67 66 67 66 66 66 65 64 63 62 61 61 61 59 59 57 56 55 54 54
31 31 31 31 32 32 30 29 29 24 24 26 49 57 58 60 61 62 62 63 64 63 63 64 64 65 65 65 66 66 65 66 65 66 65 65 64 63 62 61 60 60 59 58 57 55 52 52 53
32 32 32 32 31 31 29 29 28 28 28 32 48 51 56 58 60 61 62 62 63 63 65 64 64 65 65 65 65 65 65 65 65 65 65 65 64 63 62 61 60 59 58 58 57 55 53 51 53
32 30 31 30 30 28 30 26 26 28 29 33 45 52 56 58 60 60 61 62 62 63 63 65 65 65 65 65 65 65 65 65 64 65 65 65 65 64 63 62 61 59 58 57 57 56 53 51 52
30 30 25 26 24 26 28 24 25 27 27 27 31 43 54 56 59 60 61 61 62 62 63 64 65 65 65 65 64 64 64 64 64 64 65 65 65 65 64 63 62 61 59 58 57 56 56 53 53
29 24 26 26 22 22 24 22 26 26 25 26 27 28 38 54 58 60 61 61 62 62 63 64 65 65 65 64 64 64 65 65 65 65 65 64 64 63 63 62 61 60 58 58 57 57 56 54 53
24 26 27 24 22 22 21 21 23 24 23 24 25 26 29 39 50 54 56 60 62 62 63 64 64 65 65 64 64 64 64 64 64 64 63 64 63 63 63 63 62 61 59 58 57 56 56 54 53
31 31 29 28 24 22 22 21 22 24 23 24 25 25 26 28 33 46 53 56 54 62 63 63 64 64 64 63 62 62 62 63 63 63 63 64 63 63 62 62 62 61 60 58 58 57 55 54 54
31 30 28 25 23 22 22 21 23 23 24 24 24 25 26 26 32 45 54 58 59 58 62 63 63 63 63 64 64 63 62 63 63 63 63 62 62 62 61 60 59 59 58 57 57 57 55 54 54
30 28 23 21 23 22 21 22 22 24 23 24 24 26 31 31 32 48 55 57 60 61 62 62 63 63 63 63 60 59 57 56 59 59 59 59 59 59 59 59 58 57 57 57 57 57 56 53 53
28 24 22 23 20 21 21 21 23 23 23 23 24 29 37 41 48 54 55 57 60 61 61 62 62 62 62 62 61 60 58 57 56 56 55 55 54 54 52 53 53 54 55 55 55 55 56 55 51
27 26 23 21 20 20 21 20 22 22 22 23 25 32 42 48 51 54 55 57 59 60 60 61 61 62 61 61 61 59 57 56 52 51 50 51 51 51 50 50 50 51 51 53 54 54 54 54 53
24 23 26 25 23 22 23 21 21 22 22 23 27 34 42 49 54 55 56 57 58 59 60 61 62 61 60 60 59 57 53 51 49 49 49 50 51 50 49 49 49 49 50 50 51 52 53 53 53
25 24 23 24 21 21 22 20 21 24 24 25 26 29 42 50 54 54 55 56 57 58 60 61 62 59 59 57 56 53 50 49 46 47 48 48 48 48 49 48 48 48 48 49 50 50 51 51 51
25 26 25 22 21 21 24 22 22 26 27 32 36 37 43 49 54 55 56 57 58 59 59 59 58 54 54 53 51 51 50 48 48 48 47 47 48 48 49 48 47 47 47 47 48 49 49 50 50
26 24 27 25 24 22 23 24 24 25 25 32 34 40 42 47 52 53 53 54 56 56 56 54 51 47 49 49 50 50 50 50 49 49 49 49 49 49 48 48 47 46 46 47 47 48 47 47 47
26 26 23 23 21 20 23 23 23 25 25 26 31 36 41 46 48 49 49 49 49 50 49 49 49 46 46 48 49 49 49 49 49 49 48 49 49 48 47 48 47 46 46 46 46 46 46 45 45
25 24 24 26 25 23 23 25 28 28 28 27 30 36 40 45 47 47 45 44 43 44 44 45 46 46 46 46 45 46 45 46 48 48 48 48 48 47 46 46 47 46 46 45 45 45 44 44 44
30 27 27 25 26 26 25 26 28 30 28 28 29 32 38 43 46 46 45 43 42 42 42 42 41 41 40 38 39 42 46 46 46 46 45 47 46 47 46 46 46 46 45 45 44 44 44 43 43
Wind_Speed
5 4 2 2 2 1 1 2 3 2 3 1 6 4 5 4 3 1 2 7 12 22 21 22 20 19 18 18 18 19 19 19 19 18 19 18 18 16 15 14 12 11 10 10 10 10 9 8 10
4 4 2 3 1 5 3 3 2 3 2 11 7 4 3 4 2 5 9 6 13 18 18 19 19 18 18 17 18 19 19 18 19 19 18 18 18 16 14 14 12 11 10 10 9 9 7 6 7
5 2 0 3 3 3 4 2 3 4 7 1 4 4 2 3 2 8 4 11 14 16 17 18 20 18 18 18 19 19 20 19 19 19 19 18 18 16 16 13 11 11 8 8 9 8 7 6 5
1 2 4 2 2 1 1 4 5 10 1 3 3 5 4 4 3 4 14 15 17 17 18 21 22 23 23 23 22 21 21 20 19 18 18 17 16 15 15 12 11 10 8 7 7 6 6 4 4
4 3 1 3 1 4 4 6 4 8 2 2 2 5 4 1 2 9 15 15 19 17 17 18 20 20 21 20 21 20 20 20 19 18 17 16 16 15 13 11 10 10 8 8 7 6 5 2 1
3 2 2 2 4 5 6 4 3 4 3 3 2 9 4 0 5 9 11 12 13 14 12 12 14 16 18 18 18 19 19 18 18 17 16 16 15 13 12 11 10 10 8 6 6 5 5 4 4
3 2 2 1 4 3 5 8 1 5 5 4 6 8 2 5 6 9 9 11 13 11 12 11 11 13 13 15 17 17 16 16 15 16 16 15 15 14 12 10 9 8 7 6 5 5 5 4 5
4 3 2 1 2 2 6 12 3 3 2 2 2 2 2 6 12 11 10 9 11 10 11 11 11 14 15 15 16 16 14 14 15 15 15 15 14 13 11 9 8 8 7 5 3 4 3 3 4
2 1 1 2 1 7 3 7 4 1 4 2 1 1 1 17 18 13 11 8 9 9 11 12 14 15 14 13 13 13 13 13 14 14 14 13 9 9 8 5 7 8 8 7 5 4 4 4 4
2 1 4 4 2 4 7 3 2 1 2 2 3 3 9 18 20 19 18 17 15 16 15 14 13 13 13 12 13 13 13 13 12 12 13 9 8 7 5 5 6 6 7 7 5 4 4 5 5
3 4 4 3 5 3 6 6 3 4 4 6 7 9 14 17 19 18 18 19 21 18 16 16 15 12 14 13 12 11 10 11 11 12 11 9 8 7 6 5 4 4 6 4 3 2 2 3 6
3 6 6 4 3 4 8 4 5 5 6 3 5 9 15 20 24 24 20 18 20 20 20 18 18 17 16 13 12 10 10 9 10 11 11 10 9 9 8 7 6 5 5 6 5 4 4 5 6
5 4 3 8 12 11 6 13 11 11 13 6 4 12 17 19 18 17 17 18 18 20 20 20 18 17 16 14 10 11 11 11 10 10 13 11 11 11 9 7 5 4 4 4 6 5 6 6 7
1 7 12 11 17 6 10 11 5 15 12 11 10 14 17 21 22 16 18 21 22 21 21 20 19 17 15 12 12 11 10 11 11 11 12 13 10 10 9 8 7 6 4 4 5 6 7 7 6
4 8 9 8 3 3 3 5 14 1 5 8 12 10 11 14 15 25 24 23 23 21 18 21 18 17 16 15 14 12 12 12 13 11 11 13 12 10 9 8 7 6 5 6 6 7 6 5 5
3 1 4 1 4 1 4 6 5 3 8 12 11 11 15 20 23 20 19 18 17 17 20 19 17 16 16 15 14 12 11 11 11 6 5 7 8 9 9 9 8 5 6 5 6 6 5 5 7
2 5 3 6 1 2 1 7 5 5 4 8 8 9 12 15 17 20 18 18 17 18 18 18 19 20 19 16 12 11 9 8 6 6 6 7 9 8 9 8 9 7 6 6 7 7 7 6 7
3 2 2 5 2 3 7 14 12 8 7 11 11 10 8 11 21 15 17 16 17 17 18 19 19 19 19 13 10 8 8 7 7 8 8 8 7 9 10 10 10 7 6 7 6 8 4 5 10
4 2 6 11 9 4 8 10 16 16 13 17 17 16 13 15 8 7 7 8 13 18 20 22 22 19 16 15 13 8 10 9 7 8 9 8 7 8 8 7 7 8 10 10 9 7 9 8 10
6 6 10 11 4 4 9 18 19 14 12 11 13 14 11 7 10 11 7 5 10 17 20 20 20 19 17 15 13 6 7 5 6 7 6 5 5 6 5 6 7 7 7 9 11 12 6 8 14
6 7 7 8 6 2 9 10 5 4 9 10 10 8 9 10 11 9 6 6 7 12 16 18 19 20 18 16 14 9 7 4 5 5 4 5 4 5 5 6 8 9 10 11 10 11 12 9 14
7 10 9 6 3 5 5 14 9 8 15 12 9 5 7 7 4 6 7 8 11 13 15 19 19 20 19 20 16 16 12 8 6 4 2 3 4 4 3 5 7 8 8 9 10 10 12 11 11
6 4 4 2 4 3 5 6 10 5 14 16 8 5 4 6 7 8 9 9 10 11 14 16 18 19 18 18 17 14 10 7 4 3 4 5 5 5 6 6 7 8 8 10 11 11 12 11 11
4 3 3 3 1 9 7 9 6 4 6 5 4 4 7 7 7 7 7 8 10 11 13 16 19 17 17 15 13 14 13 10 7 6 7 6 6 7 8 9 9 9 9 9 9 11 12 12 13
3 1 5 4 3 10 7 8 16 10 19 13 10 10 6 8 11 13 12 12 14 16 16 16 19 18 18 17 16 14 13 10 11 9 8 8 8 9 10 10 11 10 9 9 9 10 10 10 9
9 7 7 6 10 13 3 10 8 19 17 8 9 10 4 10 12 15 15 14 15 15 16 17 18 18 17 15 13 11 10 9 9 9 9 10 10 11 7 8 10 11 11 11 10 9 9 9 11
5 9 3 8 5 9 11 11 10 13 10 7 14 6 7 12 16 16 14 14 15 16 17 18 17 14 12 12 9 9 8 7 9 10 9 10 11 11 10 11 13 12 11 12 10 11 11 9 10
5 9 3 1 10 20 8 9 14 13 13 14 15 11 12 13 15 16 16 16 16 16 16 13 12 12 9 8 7 8 7 8 8 8 11 12 12 11 11 11 12 12 12 11 11 12 11 10 9
5 6 4 4 7 16 19 10 10 12 14 11 13 11 14 16 19 21 20 17 17 13 12 12 11 11 9 8 7 7 6 4 4 7 9 10 10 9 11 11 11 13 14 12 12 14 13 13 12
2 14 17 21 17 10 14 32 11 11 7 6 8 10 13 16 18 20 20 18 18 19 16 14 10 11 8 7 6 6 4 4 4 5 8 10 13 13 14 13 13 14 15 14 16 17 15 15 13
Wind_Direction
110 130 114 79 193 93 189 130 264 206 164 177 126 143 157 79 161 139 55 164 138 148 152 151 144 146 145 143 134 127 122 120 120 120 119 119 115 117 118 117 110 108 109 102 101 101 102 107 111
130 119 71 105 166 135 126 267 233 253 98 131 104 106 90 74 43 106 116 159 144 144 149 150 141 142 143 136 129 126 127 129 129 128 126 122 121 121 119 115 119 117 108 110 105 101 100 103 112
122 56 178 100 108 84 86 288 327 133 144 194 107 54 77 93 101 143 96 136 141 144 151 149 143 140 138 136 135 135 137 136 134 132 131 130 133 134 128 118 114 109 117 111 113 116 118 118 130
131 69 75 81 49 287 241 341 354 152 171 46 89 72 73 5 114 124 139 139 149 153 158 154 153 151 150 148 145 144 143 141 140 136 134 134 135 130 122 121 119 116 120 108 98 100 102 118 145
50 73 33 89 314 287 281 280 264 185 48 102 101 154 104 19 72 130 148 153 154 160 162 161 159 156 153 150 148 147 145 143 143 141 138 134 131 131 126 117 110 109 104 98 91 87 87 72 172
80 67 50 69 339 308 311 293 275 211 169 168 134 138 146 182 164 149 153 152 150 148 151 152 162 159 157 151 151 152 151 149 146 140 136 133 132 129 122 113 107 101 102 93 80 70 80 88 122
103 69 108 88 328 21 11 340 207 186 174 151 146 144 148 192 165 150 144 144 147 144 148 146 164 165 157 155 157 158 156 153 145 139 139 138 137 134 128 123 117 108 99 84 71 67 61 73 110
107 96 116 195 27 78 342 349 324 38 139 111 177 152 154 185 157 140 137 145 147 146 153 156 160 166 168 168 165 161 160 154 149 146 146 144 142 140 142 136 131 125 120 110 84 71 89 121 120
125 55 183 168 77 312 328 350 340 24 132 113 85 129 103 149 149 145 140 147 166 169 168 169 173 170 169 168 168 161 161 160 155 155 154 151 157 159 153 131 140 142 142 150 163 161 138 144 163
152 181 219 195 243 306 321 281 332 241 137 219 200 115 140 156 166 166 171 176 182 186 184 180 179 172 170 170 166 170 170 172 172 170 169 171 167 168 160 152 168 168 157 163 170 171 148 161 183
166 218 216 242 227 270 328 334 288 164 252 215 205 179 163 172 184 183 186 187 186 185 187 189 185 176 177 175 171 172 170 170 174 175 174 174 172 176 189 192 186 192 174 173 183 197 226 201 196
243 240 243 276 184 321 306 304 288 263 244 318 223 163 174 188 193 194 191 189 189 186 192 189 189 185 186 179 178 171 169 172 181 184 177 182 190 196 204 206 201 205 196 171 179 195 212 220 215
228 266 242 273 287 279 265 262 259 250 256 248 191 175 184 203 208 203 200 196 192 194 193 191 189 188 186 177 172 174 180 186 190 190 196 195 201 208 210 220 213 215 195 186 182 198 209 212 222
240 278 281 273 269 244 241 259 180 242 244 217 207 208 195 202 206 202 205 205 202 200 193 187 191 187 179 170 174 175 177 193 200 205 208 206 211 216 217 226 228 230 215 208 219 207 221 220 220
275 293 303 254 271 261 179 258 239 233 204 221 234 235 232 223 209 211 211 211 204 205 193 193 186 181 175 174 174 175 187 197 211 215 216 213 217 223 230 241 241 234 224 229 236 224 220 224 219
290 306 314 15 351 359 172 279 298 356 202 229 230 238 231 225 221 229 224 220 212 204 196 192 186 180 177 181 182 183 192 203 218 209 211 222 229 236 239 251 254 242 232 232 240 243 234 224 211
22 268 270 302 100 337 275 293 248 318 275 244 240 241 237 239 233 234 230 227 220 211 200 192 186 184 182 184 178 179 187 200 182 192 209 215 218 213 224 235 245 234 238 219 230 234 220 216 214
195 230 267 266 250 322 281 257 283 300 291 287 281 266 252 233 237 234 231 235 230 218 205 195 190 186 182 170 169 171 178 181 190 203 204 209 211 209 211 228 239 230 225 242 229 233 200 205 200
159 240 272 269 268 279 266 277 287 293 280 276 273 271 256 246 250 220 229 232 226 217 203 196 186 183 168 159 166 176 185 187 203 205 204 210 223 230 234 250 249 245 244 231 226 233 219 207 182
218 253 274 284 270 258 281 285 284 270 264 270 276 276 274 264 252 234 238 257 227 211 204 191 186 171 169 170 173 153 156 175 204 197 197 221 230 232 229 242 257 259 251 241 238 222 203 197 173
216 220 245 264 312 269 312 274 253 268 276 264 255 267 276 268 254 233 234 230 209 196 189 185 180 167 169 163 134 123 116 124 176 195 214 220 221 229 233 243 255 260 254 254 246 240 228 221 196
243 221 233 254 292 286 0 299 284 290 292 280 280 264 287 294 255 210 211 212 197 185 181 178 167 165 161 161 158 164 174 184 188 185 192 235 232 238 253 262 260 263 266 266 260 253 239 230 209
225 167 197 195 242 313 271 260 285 328 284 280 246 234 255 253 227 209 207 205 193 179 172 166 163 161 162 171 168 166 172 176 153 181 221 235 249 251 253 259 260 262 258 255 250 243 235 222 226
125 118 59 69 175 265 222 219 285 247 236 262 204 243 244 218 201 210 205 185 176 170 169 166 165 161 162 167 171 175 175 181 195 218 242 250 254 256 246 240 244 243 242 246 251 246 237 229 227
159 111 297 268 230 259 155 193 255 255 244 240 276 294 246 202 194 193 187 180 176 174 170 165 165 162 172 174 177 179 186 191 212 220 232 243 246 245 240 229 233 241 238 236 232 234 237 235 236
198 191 219 279 278 282 107 248 264 254 268 283 287 291 236 208 203 201 195 190 180 172 169 169 173 172 178 181 184 189 191 203 221 230 233 245 253 259 249 245 246 246 237 234 235 243 243 242 244
182 208 194 254 245 278 250 265 274 252 254 273 268 296 262 223 213 210 206 202 194 188 186 185 183 184 184 193 195 205 216 223 238 245 252 260 257 261 257 244 245 244 241 238 234 243 247 238 242
199 154 206 214 273 272 239 259 246 246 246 245 263 251 249 235 223 221 222 218 211 203 199 201 201 199 201 208 216 226 228 232 248 258 261 256 268 261 252 249 245 246 239 236 232 240 238 235 242
179 204 226 261 224 266 285 259 216 236 234 242 263 267 257 234 224 220 222 221 221 225 219 213 216 219 219 225 224 227 233 245 258 253 264 266 272 287 283 276 264 249 244 236 232 233 232 229 235
181 242 233 242 251 242 266 270 213 212 194 199 267 277 264 245 233 229 226 222 221 222 222 225 225 227 224 215 217 214 180 180 217 274 284 297 295 283 272 265 257 250 244 235 228 227 227 229 230